Location: Petruro
(41.0333°N, 14.7833°E)
Time: 07:58:50
(UTC+00:00)

DELTA 2 R/B (1) - Pass Details

Date: 24 October 2021
Orbit: 790 x 802 km, 39.6° (Epoch: 28 November)

Event Time Altitude Azimuth Distance (km) Brightness Sun altitude
Rises 18:04:01 0° 201° (SSW) 3,287 7.0 -22.7°
Reaches altitude 10° 18:07:25 10° 180° (S) 2,359 6.0 -23.3°
Enters shadow 18:08:42 14° 168° (SSE) 2,118 5.6 -23.6°
